This is the latest recevied weather packets stored in our database for station/object N5PRN. If no packets are shown the sender has not sent any weather packets the latest 10 day(s).
| Time | Temp. | Humidity | Pressure | Rain* | Wind** | Luminosity | Snow |
|---|---|---|---|---|---|---|---|
| 1778157091 | 13.89° C | 99% | 1016.1 hPa | 0 mm | - | 49 W/m² | - |
| 1778156786 | 13.33° C | 99% | 1016.2 hPa | 0 mm | - | 57 W/m² | - |
| 1778156482 | 13.33° C | 99% | 1016 hPa | 0 mm | - | 40 W/m² | - |
| 1778156178 | 13.33° C | 99% | 1015.5 hPa | 0 mm | - | 33 W/m² | - |
| 1778155874 | 13.33° C | 99% | 1015.6 hPa | 0 mm | - | 25 W/m² | - |
| 1778155570 | 13.33° C | 99% | 1015.5 hPa | 0 mm | - | 28 W/m² | - |
| 1778155267 | 13.33° C | 99% | 1015.6 hPa | 0 mm | - | 18 W/m² | - |
| 1778154964 | 13.33° C | 99% | 1015.5 hPa | 0 mm | - | 9 W/m² | - |
| 1778154660 | 13.33° C | 99% | 1015.5 hPa | 0 mm | - | 9 W/m² | - |
| 1778154355 | 13.33° C | 99% | 1015.5 hPa | 0 mm | - | 5 W/m² | - |
| 1778154053 | 13.33° C | 99% | 1015.1 hPa | 0 mm | - | 6 W/m² | - |
| 1778153750 | 13.33° C | 99% | 1015.1 hPa | 0 mm | - | 6 W/m² | - |
| 1778153447 | 13.33° C | 99% | 1015.4 hPa | 0 mm | - | 3 W/m² | - |
| 1778153145 | 13.33° C | 99% | 1015.1 hPa | 0 mm | - | 0 W/m² | - |
| 1778152841 | 13.33° C | 99% | 1015.1 hPa | 0 mm | - | 0 W/m² | - |
| 1778152539 | 13.33° C | 99% | 1015.1 hPa | 0 mm | - | 0 W/m² | - |
| 1778152235 | 13.33° C | 99% | 1015.1 hPa | 0 mm | - | 0 W/m² | - |
| 1778151932 | 13.33° C | 99% | 1015 hPa | 0 mm | - | 0 W/m² | - |
| 1778151628 | 13.33° C | 99% | 1014.8 hPa | 0 mm | - | 0 W/m² | - |
| 1778151325 | 13.33° C | 99% | 1015.1 hPa | 0 mm | - | 0 W/m² | - |
| 1778151021 | 13.33° C | 99% | 1015.1 hPa | 0 mm | - | 0 W/m² | - |
| 1778150719 | 12.78° C | 99% | 1015.2 hPa | 0 mm | - | 0 W/m² | - |
| 1778150415 | 13.33° C | 99% | 1014.7 hPa | 0 mm | - | 0 W/m² | - |
| 1778150111 | 13.33° C | 99% | 1014.5 hPa | 0 mm | - | 0 W/m² | - |
| 1778149808 | 12.78° C | 99% | 1014.5 hPa | 0 mm | - | 0 W/m² | - |
* Rain latest hour (hover to see other rain measurements)
** Current wind speed in m/s (hover to see current wind gust speed)